| time (UTC) | temp F | wind direction | speed knots | gust knots | rain 1hr in | rain 24hr in | rain mn in | humidity % | barometer mb |
| 20260507163025 | 55 | 227 | 0.0 | 7.0 | 0.00 | 0.04 | 0.00 | 26 | 1008.6 |
| 20260507153025 | 56 | 205 | 0.0 | 7.8 | 0.00 | 0.04 | 0.00 | 26 | 1007.3 |
| 20260507150026 | 57 | 249 | 0.0 | 7.0 | 0.00 | 0.04 | 0.00 | 26 | 1007.1 |
| 20260507143025 | 57 | 227 | 0.0 | 10.4 | 0.00 | 0.04 | 0.00 | 25 | 1007.0 |
| 20260507140025 | 58 | 259 | 0.0 | 8.7 | 0.00 | 0.04 | 0.00 | 25 | 1008.0 |
| 20260507133025 | 57 | 331 | 0.0 | 7.8 | 0.00 | 0.04 | 0.00 | 26 | 1008.2 |
| 20260507130026 | 55 | 268 | 0.0 | 9.6 | 0.00 | 0.12 | 0.00 | 26 | 1008.8 |
| 20260507123026 | 52 | 233 | 0.0 | 7.0 | 0.00 | 0.29 | 0.00 | 29 | 1009.3 |
| 20260507113028 | 55 | 210 | 0.0 | 4.3 | 0.00 | 0.29 | 0.00 | 28 | 1008.8 |
| 20260507110025 | 56 | 2 | 0.0 | 5.2 | 0.00 | 0.29 | 0.00 | 27 | 1008.3 |
| 20260507100025 | 59 | 272 | 0.0 | 9.6 | 0.00 | 0.33 | 0.00 | 25 | 1007.7 |
| 20260507093025 | 57 | 261 | 0.0 | 7.8 | 0.00 | 0.33 | 0.00 | 26 | 1008.2 |
| 20260507090025 | 55 | 231 | 0.0 | 5.2 | 0.00 | 0.33 | 0.00 | 27 | 1008.7 |
| 20260507083025 | 56 | 256 | 0.0 | 7.0 | 0.00 | 0.33 | 0.00 | 29 | 1008.5 |
| 20260507080025 | 54 | 264 | 0.0 | 5.2 | 0.00 | 0.33 | 0.00 | 32 | 1008.9 |
| 20260507073025 | 52 | 246 | 0.0 | 5.2 | 0.00 | 0.33 | 0.00 | 36 | 1008.2 |
| 20260507070025 | 50 | 185 | 0.0 | 3.5 | 0.00 | 0.33 | 0.00 | 37 | 1008.6 |
| 20260507063026 | 48 | 206 | 0.0 | 2.6 | 0.00 | 0.33 | 0.00 | 39 | 1009.2 |
| 20260507060025 | 47 | 131 | 0.0 | 2.6 | 0.00 | 0.33 | 0.00 | 48 | 1009.6 |
| 20260507053025 | 45 | 185 | 0.0 | 0.0 | 0.00 | 0.33 | 0.00 | 53 | 1009.9 |
| 20260507050025 | 44 | 265 | 0.0 | 1.7 | 0.00 | 0.33 | 0.00 | 55 | 1010.3 |
| 20260507043025 | 42 | 357 | 0.0 | 2.6 | 0.00 | 0.37 | 0.00 | 53 | 1009.5 |
| 20260507040025 | 41 | 357 | 0.0 | 2.6 | 0.00 | 0.37 | 0.00 | 52 | 1009.8 |
| 20260507033025 | 41 | 53 | 0.0 | 0.0 | 0.00 | 0.37 | 0.00 | 50 | 1009.9 |
| 20260507030025 | 42 | 53 | 0.0 | 0.0 | 0.00 | 0.37 | 0.00 | 51 | 1009.7 |
| 20260507023025 | 42 | 53 | 0.0 | 3.5 | 0.00 | 0.37 | 0.00 | 52 | 1009.5 |
| 20260507020025 | 43 | 320 | 0.0 | 1.7 | 0.00 | 0.37 | 0.00 | 51 | 1009.3 |
| 20260507013025 | 43 | 315 | 0.0 | 2.6 | 0.00 | 0.37 | 0.00 | 52 | 1009.3 |
| 20260507010025 | 43 | 259 | 0.0 | 0.0 | 0.00 | 0.37 | 0.00 | 51 | 1009.4 |
| 20260507003026 | 43 | 44 | 0.0 | 0.0 | 0.00 | 0.37 | 0.00 | 50 | 1009.4 |
| 20260507000025 | 43 | 44 | 0.0 | 0.0 | 0.00 | 0.37 | 0.00 | 48 | 1009.4 |
| 20260506233025 | 44 | 12 | 0.0 | 2.6 | 0.00 | 0.37 | 0.00 | 48 | 1009.2 |
| 20260506230026 | 44 | 6 | 0.0 | 0.0 | 0.00 | 0.37 | 0.00 | 45 | 1009.1 |
| 20260506223026 | 45 | 2 | 0.0 | 4.3 | 0.00 | 0.37 | 0.00 | 45 | 1008.8 |
| 20260506220026 | 46 | 41 | 0.0 | 4.3 | 0.00 | 0.37 | 0.37 | 47 | 1008.6 |
| 20260506213026 | 47 | 225 | 0.0 | 2.6 | 0.00 | 0.37 | 0.37 | 49 | 1009.5 |
| 20260506210026 | 46 | 314 | 0.0 | 4.3 | 0.00 | 0.37 | 0.37 | 49 | 1008.5 |
| 20260506203026 | 46 | 15 | 0.0 | 2.6 | 0.00 | 0.37 | 0.37 | 44 | 1008.5 |
| 20260506200026 | 47 | 314 | 0.0 | 3.5 | 0.04 | 0.37 | 0.37 | 44 | 1008.3 |
| 20260506193026 | 47 | 44 | 0.0 | 4.3 | 0.04 | 0.37 | 0.37 | 45 | 1007.1 |
| 20260506190026 | 47 | 323 | 0.0 | 0.0 | 0.00 | 0.33 | 0.33 | 43 | 1007.1 |
| 20260506183026 | 47 | 325 | 0.0 | 2.6 | 0.00 | 0.33 | 0.33 | 39 | 1007.1 |
| 20260506180026 | 50 | 248 | 0.0 | 3.5 | 0.00 | 0.33 | 0.33 | 37 | 1006.5 |
| 20260506173026 | 51 | 251 | 0.0 | 7.0 | 0.00 | 0.33 | 0.33 | 36 | 1005.0 |
| 20260506170026 | 52 | 273 | 0.0 | 5.2 | 0.00 | 0.33 | 0.33 | 37 | 1004.9 |